SCP
0 0 0 0 0 0 0 0 0 0 0 0 0 0 0 0 0 0 0 0 0 0 0 0 0 0 0 0 0 0 0 0 0 0 0 0 0 0 0 0 0 0 0 0
0 0 0 0 0 0 0 0 0 0 0 0 0 0 0 0 0 0 0 0 0 0 0 0 0 0 0 0 0 0 0 0 0 0 0 0 0 0 0 0 0 0 0 0
0 0 0 0 0 0 0 0 0 0 0 0 0 0 0 0 0 0 0 0 0 0 0 0 0 0 0 0 0 0 0 0 0 0 0 0 0 0 0 0 0 0 0 0
0 0 0 0 0 0 0 0 0 0 0 0 0 0 0 0 0 0 0 0 0 0 0 0 0 0 0 0 0 0 0 0 0 0 0 0 0 0 0 0 0 0 0 0
0 0 0 0 0 0 0 0 0 0 0 0 0 0 0 0 0 0 0 0 0 0 0 0 0 0 0 0 0 0 0 0 0 0 0 0 0 0 0 0 0 0 0 0
0 0 0 0 0 0 0 0 0 0 0 0 0 0 0 0 0 0 0 0 0 0 0 0 0 0 0 0 0 0 0 0 0 0 0 0 0 0 0 0 0 0 0 0
0 0 0 0 0 0 0 0 0 0 0 0 0 0 0 0 0 0 0 0 0 0 0 0 0 0 0 0 0 0 0 0 0 0 0 0 0 0 0 0 0 0 0 0
0 0 0 0 0 0 0 0 0 0 0 0 0 0 0 0 0 0 0 0 0 0 0 0 0 0 0 0 0 0 0 0 0 0 0 0 0 0 0 0 0 0 0 0
0 0 0 0 0 0 0 0 0 0 0 0 0 0 0 0 0 0 0 0 0 0 0 0 0 0 0 0 0 0 0 0 0 0 0 0 0 0 0 0 0 0 0 0
0 0 0 0 0 0 0 0 0 0 0 0 0 0 0 0 0 0 0 0 0 0 0 0 0 0 0 0 0 0 0 0 0 0 0 0 0 0 0 0 0 0 0 0
0 0 0 0 0 0 0 0 0 0 0 0 0 0 0 0 0 0 0 0 0 0 0 0 0 0 0 0 0 -0 0 0 0 0 0 0 0 0 0 0 0 0 0 0
0 0 0 0 0 0 0 0 0 0 0 0 0 0 0 0 0 0 0 0 0 0 0 0 0 -0 -0 -0 -0 -0 -0 -0 -0 -0 -0 -0 -0 -0 0 0 0 0 0 0
0 0 0 0 0 0 0 0 0 0 0 0 0 0 0 0 0 0 0 0 0 0 0 0 -0 -0 -0 -0 -0 -0 -0 -0 -0 -0 -0 -0 -0 -0 -0 0 0 0 0 0
0 0 0 0 0 0 0 0 0 0 0 0 0 0 0 0 0 0 0 0 0 0 0 0 0 -0 -0 -0 -0 -0 -0 -0 -0 -0 -0 -0 -0 0 0 0 0 0 0 0
0 0 0 0 0 0 0 0 0 0 0 0 0 0 0 0 0 0 0 0 0 0 0 0 0 0 0 0 -0 -0 -0 -0 -0 -0 -0 -0 -0 0 0 0 0 0 0 0
0 0 0 0 0 0 0 0 0 0 0 0 0 0 0 0 0 0 0 0 0 0 0 0 0 0 0 0 0 0 0 0 -0 -0 0 0 0 0 0 0 0 0 0 0
0 0 0 0 0 0 0 0 0 0 0 0 0 0 0 0 0 0 0 0 0 0 0 0 0 0 0 0 0 0 0 0 0 0 0 0 0 0 0 0 0 0 0 0
0 0 0 0 0 0 0 0 0 0 0 0 0 0 0 0 0 0 0 0 0 0 0 0 0 0 0 0 0 0 0 0 0 0 0 0 0 0 0 0 0 0 0 0
0 0 0 0 0 0 0 0 0 0 0 0 0 0 0 0 0 0 0 0 0 0 0 0 0 0 0 0 0 0 0 0 0 0 0 0 0 0 0 0 0 0 0 0
0 0 0 0 0 0 0 0 0 0 0 0 0 0 0 0 0 0 0 0 0 0 0 0 0 0 0 0 0 0 0 0 0 0 0 0 0 0 0 0 0 0 0 0
0 0 0 0 0 0 0 0 0 0 0 0 0 0 0 0 0 0 0 0 0 0 0 0 0 0 0 0 0 0 0 0 0 0 0 0 0 0 -0 0 0 0 0 0
0 0 0 0 0 0 0 0 0 0 0 0 0 0 0 0 0 0 0 0 0 0 0 0 0 0 0 0 0 0 0 0 0 0 0 0 0 0 0 -0 0 -0 -0 -0
0 0 0 0 0 0 0 0 0 0 0 0 0 0 0 0 0 0 0 0 0 0 0 0 0 0 0 0 0 0 0 0 0 0 0 0 0 0 0 -0 -0 -0 -0 -0
0 0 0 0 0 0 0 0 0 0 0 0 0 0 0 0 0 0 0 0 0 0 0 0 0 0 0 0 0 0 0 0 0 0 0 0 0 0 0 0 0 -0 -0 -0
0 0 0 0 0 0 0 0 0 0 0 0 0 0 0 0 0 0 0 0 0 0 0 0 0 0 0 0 0 0 0 0 0 0 0 0 0 0 0 0 0 0 -0 -0
0 0 0 0 0 0 0 0 0 0 0 0 0 0 0 0 0 0 0 0 0 0 0 0 0 0 0 0 0 0 0 0 0 0 0 0 0 0 0 0 0 -0 -0 -0
Wind_Speed_500mb
7 7 7 10 9 5 8 4 5 9 9 4 5 6 7 15 26 28 29 31 31 32 27 22 16 13 9 12 16 24 36 38 38 36 34 30 29 24 24 40 36 43 56 43
8 7 7 6 6 7 4 4 8 10 7 2 4 9 1 8 10 20 25 33 34 33 33 32 27 20 15 8 9 16 22 27 31 34 30 30 28 22 20 30 38 33 40 41
8 6 8 8 6 9 8 8 9 12 7 5 5 8 8 1 9 17 26 28 35 40 44 46 43 36 27 21 13 4 13 14 13 18 21 25 28 25 22 24 33 27 37 39
8 6 7 7 9 12 6 11 9 6 4 6 4 8 9 8 4 8 18 28 33 38 43 47 50 50 44 38 28 17 9 6 11 11 12 17 20 22 21 18 23 31 34 42
7 3 6 9 10 13 10 7 6 1 4 6 2 2 8 9 9 6 7 18 26 32 38 45 50 52 53 46 38 31 18 11 4 6 12 19 18 17 18 15 15 20 24 30
12 5 7 10 5 11 14 9 11 8 4 4 11 11 9 12 11 9 6 13 20 26 32 38 42 46 51 51 50 42 32 24 10 1 9 13 18 17 11 11 11 15 18 21
7 7 6 7 7 2 6 10 4 7 5 12 4 7 11 9 12 18 20 14 18 22 28 35 41 45 47 50 52 50 48 42 29 17 3 10 9 15 17 13 11 10 13 19
5 12 10 5 9 12 11 14 11 13 7 7 4 12 7 3 26 35 23 17 17 19 24 30 35 39 42 45 46 45 45 43 40 35 22 12 11 16 17 21 21 22 16 14
8 11 4 4 3 6 6 8 4 13 3 5 7 7 3 8 10 19 18 14 14 16 19 22 26 30 33 37 41 42 40 38 36 34 32 28 18 13 18 20 22 24 26 19
2 7 1 3 1 3 5 9 5 4 5 10 7 9 8 18 16 12 11 12 10 11 13 16 20 23 26 30 33 34 35 37 35 32 30 28 29 25 17 18 23 26 31 27
6 6 6 0 7 8 1 4 3 4 7 9 2 9 6 7 23 23 26 17 9 4 9 15 19 21 22 25 27 29 30 30 30 31 31 30 27 25 26 19 20 24 29 31
6 6 7 15 3 3 4 3 5 7 10 3 4 13 9 9 24 38 28 17 5 3 11 22 32 27 23 21 23 26 27 29 30 31 31 32 32 29 26 26 23 22 27 29
7 3 5 16 8 5 5 3 6 6 2 11 7 11 7 17 20 17 19 17 15 21 28 42 38 27 25 22 21 23 24 27 29 30 31 32 32 32 32 28 26 26 26 31
7 4 12 11 6 4 5 6 5 9 6 5 12 13 3 6 10 22 28 29 34 43 50 46 34 30 31 30 25 22 21 25 27 30 32 35 36 35 35 36 31 29 28 29
9 9 7 8 13 8 12 12 14 13 11 11 10 19 13 19 17 32 29 45 42 40 45 48 42 46 38 35 32 28 23 24 26 29 31 32 34 36 37 37 36 32 31 30
1 5 5 8 10 10 14 18 22 24 15 23 29 44 16 35 28 38 44 38 44 48 53 53 50 46 40 39 39 39 33 28 28 31 31 31 33 35 35 37 37 37 32 32
9 10 5 10 9 14 19 21 36 13 13 15 14 27 7 11 26 38 39 39 44 49 51 50 47 45 46 42 43 42 43 35 31 33 36 36 35 37 38 37 38 40 38 32
11 10 5 6 5 6 8 4 3 22 21 18 13 13 20 25 40 44 38 40 46 48 50 49 45 42 41 45 46 44 48 43 36 33 35 38 38 38 39 40 39 39 41 39
6 8 4 6 8 15 22 14 15 14 21 20 23 31 28 22 27 38 28 41 45 45 50 50 49 46 39 43 46 46 52 48 41 35 34 36 38 36 37 40 42 42 43 43
9 7 11 7 8 14 7 4 16 13 28 33 36 21 16 6 6 17 44 45 50 46 41 43 45 47 37 31 34 45 54 50 47 38 35 40 39 40 41 41 42 44 46 47
6 7 29 27 19 16 14 18 20 8 14 8 21 17 12 9 31 63 45 39 41 42 49 44 42 41 38 34 38 44 51 52 52 42 43 43 43 44 45 45 43 45 46 49
15 14 8 4 5 18 25 10 15 17 14 21 13 28 37 46 49 52 49 43 44 49 49 40 44 45 41 39 43 43 58 60 56 48 50 47 46 48 50 50 48 45 46 49
7 14 10 20 16 8 22 24 25 35 17 37 40 46 43 42 45 45 45 46 47 49 51 51 49 48 47 42 42 48 56 65 58 56 57 51 46 47 50 53 53 53 49 49
8 15 6 6 12 27 51 49 39 47 38 34 29 26 25 33 40 47 50 53 55 55 55 60 59 56 56 53 52 50 50 51 50 60 61 53 51 49 50 52 56 59 56 53
7 13 9 15 31 38 50 12 20 24 23 28 33 36 35 38 46 48 58 59 60 61 61 63 68 66 67 63 61 55 55 54 54 60 65 63 62 59 58 59 59 61 61 57
1 6 9 17 15 13 17 38 37 34 31 34 39 43 39 38 45 49 58 60 62 62 61 61 62 66 65 68 71 69 55 52 56 62 69 72 69 65 66 67 70 65 65 63
Wind_Direction_500mb
33 60 208 230 193 96 120 168 261 262 276 284 303 300 345 23 43 34 32 31 30 29 19 13 4 348 324 266 239 231 234 238 242 243 244 245 255 272 265 230 239 253 255 248
28 239 226 190 142 160 160 207 259 273 245 198 340 283 156 32 50 48 39 38 36 39 36 28 24 24 16 350 274 241 237 238 243 246 243 244 251 268 267 257 247 250 257 238
180 182 88 145 156 161 195 191 220 229 326 264 337 276 220 256 80 62 61 57 51 42 40 39 36 33 32 34 28 12 232 224 238 251 247 247 249 257 263 266 254 263 262 230
230 277 220 184 203 166 203 204 216 222 146 244 53 275 248 186 128 43 46 54 52 52 53 49 46 44 39 36 35 42 90 145 172 203 238 247 261 259 266 277 274 257 257 243
248 201 201 209 213 175 215 132 140 154 129 350 214 81 263 134 206 178 61 60 59 55 53 52 51 50 50 48 46 45 52 78 125 207 211 219 230 242 252 261 275 271 273 252
239 250 236 222 162 175 148 85 50 48 69 324 217 176 237 190 188 159 148 79 64 61 56 55 52 53 52 52 53 51 47 51 69 141 241 247 238 234 242 246 269 286 276 268
310 224 265 192 140 135 133 98 328 344 7 226 323 201 260 195 159 152 151 107 74 62 58 52 48 45 45 45 45 47 48 48 43 41 337 271 273 253 235 229 236 268 287 294
177 315 187 182 208 193 191 163 165 209 212 260 125 236 263 110 131 135 131 117 93 66 54 48 43 39 35 33 36 36 38 39 41 41 29 8 302 269 264 257 249 241 254 274
160 268 294 245 307 151 204 193 168 104 43 30 225 288 167 136 132 142 138 126 96 75 54 44 39 31 27 25 23 22 23 27 27 29 28 22 6 321 286 271 264 257 238 235
169 299 237 302 57 315 205 165 98 1 164 232 276 275 235 198 189 182 177 157 123 78 55 33 20 17 15 13 12 9 8 9 10 9 13 13 4 357 339 293 260 249 243 230
149 144 275 80 204 201 9 280 11 152 157 184 234 257 21 251 192 183 194 181 160 90 34 12 358 349 349 353 352 352 352 355 354 355 355 355 355 352 345 330 297 270 251 242
192 164 243 234 299 283 282 263 175 171 245 206 161 261 331 292 176 173 185 181 189 311 345 340 326 315 309 320 333 339 344 345 348 349 347 345 341 340 338 332 320 288 268 254
199 279 353 331 359 5 226 160 109 114 109 203 195 257 24 64 98 149 180 198 235 289 292 310 308 283 283 288 306 320 329 336 340 342 344 340 334 332 331 332 323 314 285 261
149 127 176 207 202 132 233 195 149 133 128 200 228 286 132 138 184 212 226 247 281 299 310 319 307 305 295 278 284 297 313 323 326 327 333 337 336 332 330 330 328 318 306 280
133 210 169 252 249 249 224 214 204 187 199 190 244 232 179 215 220 239 261 290 295 303 310 315 306 298 280 276 272 273 289 307 317 322 325 328 333 333 330 325 324 323 313 301
120 234 137 292 291 283 271 233 222 222 220 248 252 268 226 254 251 253 265 273 283 303 311 309 305 297 280 273 272 264 268 281 302 313 318 320 322 325 328 327 324 320 318 310
158 146 117 262 339 327 300 219 217 194 211 190 201 247 149 223 237 245 260 286 297 305 308 310 305 294 289 284 270 265 260 268 283 304 309 312 313 316 322 325 325 322 318 315
152 131 132 240 19 287 278 231 167 209 237 214 270 255 224 225 267 273 293 298 298 305 309 311 314 304 282 278 270 268 249 256 267 287 298 304 310 316 319 322 322 321 320 318
186 146 175 202 195 304 288 215 187 189 257 212 227 249 256 263 288 287 296 298 303 303 303 301 303 303 287 270 265 256 241 246 256 272 288 298 302 312 323 329 328 323 319 319
221 271 198 142 199 230 255 204 160 124 278 210 223 248 250 252 264 280 305 307 300 303 309 302 301 292 276 273 275 271 245 242 253 263 278 286 290 298 307 316 324 328 322 319
140 204 219 225 234 271 236 222 155 127 266 187 193 215 268 222 257 288 294 299 300 298 301 296 296 294 280 281 277 273 248 247 260 263 268 276 282 287 294 301 308 315 320 317
180 177 200 170 244 275 195 104 175 222 202 218 211 289 285 292 289 287 285 294 299 301 302 301 290 284 277 273 274 270 250 256 258 257 261 269 274 280 287 292 298 303 310 315
270 198 194 194 208 250 204 227 253 247 241 291 294 306 292 280 279 281 282 288 292 293 293 295 295 290 280 281 273 267 263 264 264 256 260 265 268 275 281 288 291 295 300 307
270 198 214 73 242 240 269 277 272 290 294 292 283 284 284 285 288 288 289 289 290 291 290 290 291 288 282 279 279 274 266 263 256 254 257 261 265 271 278 285 288 289 292 298
220 152 221 261 275 292 277 308 318 313 310 301 295 296 297 294 291 293 291 292 293 293 292 289 289 287 283 280 276 275 274 271 260 246 250 255 259 267 276 281 285 286 286 291
344 326 269 280 19 312 304 329 312 314 317 311 307 305 305 305 301 299 294 296 298 298 298 295 292 289 283 278 274 273 271 269 263 252 248 253 258 264 271 279 285 283 284 285
Wind_Speed_850mb
7 7 7 10 9 5 8 4 5 9 9 4 5 6 7 15 26 28 29 31 31 32 27 22 16 13 9 12 16 24 36 38 38 36 34 30 29 24 24 40 36 43 56 43
8 7 7 6 6 7 4 4 8 10 7 2 4 9 1 8 10 20 25 33 34 33 33 32 27 20 15 8 9 16 22 27 31 34 30 30 28 22 20 30 38 33 40 41
8 6 8 8 6 9 8 8 9 12 7 5 5 8 8 1 9 17 26 28 35 40 44 46 43 36 27 21 13 4 13 14 13 18 21 25 28 25 22 24 33 27 37 39
8 6 7 7 9 12 6 11 9 6 4 6 4 8 9 8 4 8 18 28 33 38 43 47 50 50 44 38 28 17 9 6 11 11 12 17 20 22 21 18 23 31 34 42
7 3 6 9 10 13 10 7 6 1 4 6 2 2 8 9 9 6 7 18 26 32 38 45 50 52 53 46 38 31 18 11 4 6 12 19 18 17 18 15 15 20 24 30
12 5 7 10 5 11 14 9 11 8 4 4 11 11 9 12 11 9 6 13 20 26 32 38 42 46 51 51 50 42 32 24 10 1 9 13 18 17 11 11 11 15 18 21
7 7 6 7 7 2 6 10 4 7 5 12 4 7 11 9 12 18 20 14 18 22 28 35 41 45 47 50 52 50 48 42 29 17 3 10 9 15 17 13 11 10 13 19
5 12 10 5 9 12 11 14 11 13 7 7 4 12 7 3 26 35 23 17 17 19 24 30 35 39 42 45 46 45 45 43 40 35 22 12 11 16 17 21 21 22 16 14
8 11 4 4 3 6 6 8 4 13 3 5 7 7 3 8 10 19 18 14 14 16 19 22 26 30 33 37 41 42 40 38 36 34 32 28 18 13 18 20 22 24 26 19
2 7 1 3 1 3 5 9 5 4 5 10 7 9 8 18 16 12 11 12 10 11 13 16 20 23 26 30 33 34 35 37 35 32 30 28 29 25 17 18 23 26 31 27
6 6 6 0 7 8 1 4 3 4 7 9 2 9 6 7 23 23 26 17 9 4 9 15 19 21 22 25 27 29 30 30 30 31 31 30 27 25 26 19 20 24 29 31
6 6 7 15 3 3 4 3 5 7 10 3 4 13 9 9 24 38 28 17 5 3 11 22 32 27 23 21 23 26 27 29 30 31 31 32 32 29 26 26 23 22 27 29
7 3 5 16 8 5 5 3 6 6 2 11 7 11 7 17 20 17 19 17 15 21 28 42 38 27 25 22 21 23 24 27 29 30 31 32 32 32 32 28 26 26 26 31
7 4 12 11 6 4 5 6 5 9 6 5 12 13 3 6 10 22 28 29 34 43 50 46 34 30 31 30 25 22 21 25 27 30 32 35 36 35 35 36 31 29 28 29
9 9 7 8 13 8 12 12 14 13 11 11 10 19 13 19 17 32 29 45 42 40 45 48 42 46 38 35 32 28 23 24 26 29 31 32 34 36 37 37 36 32 31 30
1 5 5 8 10 10 14 18 22 24 15 23 29 44 16 35 28 38 44 38 44 48 53 53 50 46 40 39 39 39 33 28 28 31 31 31 33 35 35 37 37 37 32 32
9 10 5 10 9 14 19 21 36 13 13 15 14 27 7 11 26 38 39 39 44 49 51 50 47 45 46 42 43 42 43 35 31 33 36 36 35 37 38 37 38 40 38 32
11 10 5 6 5 6 8 4 3 22 21 18 13 13 20 25 40 44 38 40 46 48 50 49 45 42 41 45 46 44 48 43 36 33 35 38 38 38 39 40 39 39 41 39
6 8 4 6 8 15 22 14 15 14 21 20 23 31 28 22 27 38 28 41 45 45 50 50 49 46 39 43 46 46 52 48 41 35 34 36 38 36 37 40 42 42 43 43
9 7 11 7 8 14 7 4 16 13 28 33 36 21 16 6 6 17 44 45 50 46 41 43 45 47 37 31 34 45 54 50 47 38 35 40 39 40 41 41 42 44 46 47
6 7 29 27 19 16 14 18 20 8 14 8 21 17 12 9 31 63 45 39 41 42 49 44 42 41 38 34 38 44 51 52 52 42 43 43 43 44 45 45 43 45 46 49
15 14 8 4 5 18 25 10 15 17 14 21 13 28 37 46 49 52 49 43 44 49 49 40 44 45 41 39 43 43 58 60 56 48 50 47 46 48 50 50 48 45 46 49
7 14 10 20 16 8 22 24 25 35 17 37 40 46 43 42 45 45 45 46 47 49 51 51 49 48 47 42 42 48 56 65 58 56 57 51 46 47 50 53 53 53 49 49
8 15 6 6 12 27 51 49 39 47 38 34 29 26 25 33 40 47 50 53 55 55 55 60 59 56 56 53 52 50 50 51 50 60 61 53 51 49 50 52 56 59 56 53
7 13 9 15 31 38 50 12 20 24 23 28 33 36 35 38 46 48 58 59 60 61 61 63 68 66 67 63 61 55 55 54 54 60 65 63 62 59 58 59 59 61 61 57
1 6 9 17 15 13 17 38 37 34 31 34 39 43 39 38 45 49 58 60 62 62 61 61 62 66 65 68 71 69 55 52 56 62 69 72 69 65 66 67 70 65 65 63
Wind_Direction_850mb
33 60 208 230 193 96 120 168 261 262 276 284 303 300 345 23 43 34 32 31 30 29 19 13 4 348 324 266 239 231 234 238 242 243 244 245 255 272 265 230 239 253 255 248
28 239 226 190 142 160 160 207 259 273 245 198 340 283 156 32 50 48 39 38 36 39 36 28 24 24 16 350 274 241 237 238 243 246 243 244 251 268 267 257 247 250 257 238
180 182 88 145 156 161 195 191 220 229 326 264 337 276 220 256 80 62 61 57 51 42 40 39 36 33 32 34 28 12 232 224 238 251 247 247 249 257 263 266 254 263 262 230
230 277 220 184 203 166 203 204 216 222 146 244 53 275 248 186 128 43 46 54 52 52 53 49 46 44 39 36 35 42 90 145 172 203 238 247 261 259 266 277 274 257 257 243
248 201 201 209 213 175 215 132 140 154 129 350 214 81 263 134 206 178 61 60 59 55 53 52 51 50 50 48 46 45 52 78 125 207 211 219 230 242 252 261 275 271 273 252
239 250 236 222 162 175 148 85 50 48 69 324 217 176 237 190 188 159 148 79 64 61 56 55 52 53 52 52 53 51 47 51 69 141 241 247 238 234 242 246 269 286 276 268
310 224 265 192 140 135 133 98 328 344 7 226 323 201 260 195 159 152 151 107 74 62 58 52 48 45 45 45 45 47 48 48 43 41 337 271 273 253 235 229 236 268 287 294
177 315 187 182 208 193 191 163 165 209 212 260 125 236 263 110 131 135 131 117 93 66 54 48 43 39 35 33 36 36 38 39 41 41 29 8 302 269 264 257 249 241 254 274
160 268 294 245 307 151 204 193 168 104 43 30 225 288 167 136 132 142 138 126 96 75 54 44 39 31 27 25 23 22 23 27 27 29 28 22 6 321 286 271 264 257 238 235
169 299 237 302 57 315 205 165 98 1 164 232 276 275 235 198 189 182 177 157 123 78 55 33 20 17 15 13 12 9 8 9 10 9 13 13 4 357 339 293 260 249 243 230
149 144 275 80 204 201 9 280 11 152 157 184 234 257 21 251 192 183 194 181 160 90 34 12 358 349 349 353 352 352 352 355 354 355 355 355 355 352 345 330 297 270 251 242
192 164 243 234 299 283 282 263 175 171 245 206 161 261 331 292 176 173 185 181 189 311 345 340 326 315 309 320 333 339 344 345 348 349 347 345 341 340 338 332 320 288 268 254
199 279 353 331 359 5 226 160 109 114 109 203 195 257 24 64 98 149 180 198 235 289 292 310 308 283 283 288 306 320 329 336 340 342 344 340 334 332 331 332 323 314 285 261
149 127 176 207 202 132 233 195 149 133 128 200 228 286 132 138 184 212 226 247 281 299 310 319 307 305 295 278 284 297 313 323 326 327 333 337 336 332 330 330 328 318 306 280
133 210 169 252 249 249 224 214 204 187 199 190 244 232 179 215 220 239 261 290 295 303 310 315 306 298 280 276 272 273 289 307 317 322 325 328 333 333 330 325 324 323 313 301
120 234 137 292 291 283 271 233 222 222 220 248 252 268 226 254 251 253 265 273 283 303 311 309 305 297 280 273 272 264 268 281 302 313 318 320 322 325 328 327 324 320 318 310
158 146 117 262 339 327 300 219 217 194 211 190 201 247 149 223 237 245 260 286 297 305 308 310 305 294 289 284 270 265 260 268 283 304 309 312 313 316 322 325 325 322 318 315
152 131 132 240 19 287 278 231 167 209 237 214 270 255 224 225 267 273 293 298 298 305 309 311 314 304 282 278 270 268 249 256 267 287 298 304 310 316 319 322 322 321 320 318
186 146 175 202 195 304 288 215 187 189 257 212 227 249 256 263 288 287 296 298 303 303 303 301 303 303 287 270 265 256 241 246 256 272 288 298 302 312 323 329 328 323 319 319
221 271 198 142 199 230 255 204 160 124 278 210 223 248 250 252 264 280 305 307 300 303 309 302 301 292 276 273 275 271 245 242 253 263 278 286 290 298 307 316 324 328 322 319
140 204 219 225 234 271 236 222 155 127 266 187 193 215 268 222 257 288 294 299 300 298 301 296 296 294 280 281 277 273 248 247 260 263 268 276 282 287 294 301 308 315 320 317
180 177 200 170 244 275 195 104 175 222 202 218 211 289 285 292 289 287 285 294 299 301 302 301 290 284 277 273 274 270 250 256 258 257 261 269 274 280 287 292 298 303 310 315
270 198 194 194 208 250 204 227 253 247 241 291 294 306 292 280 279 281 282 288 292 293 293 295 295 290 280 281 273 267 263 264 264 256 260 265 268 275 281 288 291 295 300 307
270 198 214 73 242 240 269 277 272 290 294 292 283 284 284 285 288 288 289 289 290 291 290 290 291 288 282 279 279 274 266 263 256 254 257 261 265 271 278 285 288 289 292 298
220 152 221 261 275 292 277 308 318 313 310 301 295 296 297 294 291 293 291 292 293 293 292 289 289 287 283 280 276 275 274 271 260 246 250 255 259 267 276 281 285 286 286 291
344 326 269 280 19 312 304 329 312 314 317 311 307 305 305 305 301 299 294 296 298 298 298 295 292 289 283 278 274 273 271 269 263 252 248 253 258 264 271 279 285 283 284 285